Tracking 28081 objects as of 27-Sep-2023
HD Live streaming from Space Station
objects crossing your sky now

STARLINK-2528

Track STARLINK-2528 now!
10-day predictions
STARLINK-2528 is classified as:


NORAD ID: 48307
Int'l Code: 2021-036AH
Perigee: 553.7 km
Apogee: 555.3 km
Inclination: 53.1 °
Period: 95.6 minutes
Semi major axis: 6925 km
RCS: Unknown
Launch date: April 29, 2021
Source: United States (US)
Launch site: AIR FORCE EASTERN TEST RANGE (AFETR)
Your satellite tracking list
Your tracking list is empty




NASA's NSSDC Master Catalog

Two Line Element Set (TLE):
1 48307U 21036AH  23269.95011423  .00033082  00000-0  22320-2 0  9998
2 48307  53.0542 148.2618 0001122  91.5533 268.5585 15.06357196133903
Source of the keplerian elements: AFSPC